Weather History for Arctic Village, AK

Change the Weather History Date:

Thursday, November 10, 2011

  Actual Average Record
Temperature  
Mean Temperature -20 °F -  
Max Temperature -16 °F 0 °F 23 °F (1992)
Min Temperature -25 °F -22 °F -48 °F (1989)
Degree Days  
Heating Degree Days 86    
Moisture  
Dew Point -28 °F    
Average Humidity 64    
Maximum Humidity 76    
Minimum Humidity 53    
Precipitation  
Precipitation 0.00 in - - ()
Sea Level Pressure  
Sea Level Pressure 29.31 in    
Wind  
Wind Speed - (North)    
Max Wind Speed -    
Max Gust Speed -    
Visibility 10 miles    
Events      
Averages and records for this station are not official NWS values.
T = Trace of Precipitation, MM = Missing Value Source: NWS Daily Summary

Daily Weather History Graph

Daily Weather History Graph

Search for Another Location

Airport:

Trip Planner

Search our weather history database for the weather conditions in past years. The results will help you decide how hot, cold, wet, or windy it might be!

Date:

Astronomy

Nov. 10, 2011 Rise Set
Actual Time 9:33 AM AKST 3:17 PM AKST
Civil Twilight 8:19 AM AKST 4:31 PM AKST
Nautical Twilight 7:08 AM AKST 5:42 PM AKST
Astronomical Twilight 6:03 AM AKST 6:47 PM AKST
Moon 2:18 PM AKST (11/10) 10:23 AM AKST (11/10)
Length of Visible Light 8h 11m
Length of Day
5h 44m
Full, 100% of the Moon is Illuminated
Nov 10
Full
Nov 18
Last Quarter
Nov 24
New
Dec 2
First Quarter
Dec 10
Full

Hourly Weather History & Observations

Time (AKST) Temp. Dew Point Humidity Pressure Visibility Wind Dir Wind Speed Gust Speed Precip Events Conditions
12:16 AM -18.4 °F -27.4 °F 63% 29.38 in 10.0 mi North - - N/A   Clear
12:36 AM -16.6 °F -27.4 °F 58% 29.37 in 10.0 mi North - - N/A   Clear
12:56 AM -16.6 °F -23.8 °F 70% 29.36 in 7.0 mi North - - N/A   Clear
1:16 AM -16.6 °F -29.2 °F 53% 29.36 in 10.0 mi North - - N/A   Clear
1:36 AM -16.6 °F -25.6 °F 64% 29.35 in 10.0 mi North - - N/A   Scattered Clouds
1:56 AM -16.6 °F -27.4 °F 58% 29.34 in 10.0 mi North - - N/A   Clear
2:16 AM -16.6 °F -23.8 °F 70% 29.34 in 10.0 mi North - - N/A   Partly Cloudy
2:56 AM -18.4 °F -29.2 °F 58% 29.33 in 10.0 mi North - - N/A   Clear
3:16 AM -18.4 °F -27.4 °F 63% 29.33 in 10.0 mi North - - N/A   Clear
3:36 AM -18.4 °F - N/A% 29.32 in 10.0 mi North - - N/A   Clear
3:56 AM -18.4 °F - N/A% 29.31 in 10.0 mi North - - N/A   Clear
4:16 AM -20.2 °F -27.4 °F 69% 29.30 in 10.0 mi North - - N/A   Clear
4:36 AM -22.0 °F - N/A% 29.30 in 10.0 mi North - - N/A   Clear
4:56 AM -18.4 °F - N/A% 29.29 in 10.0 mi North - - N/A   Clear
5:16 AM -20.2 °F - N/A% 29.29 in 10.0 mi North - - N/A   Clear
5:36 AM -20.2 °F - N/A% 29.29 in 10.0 mi North - - N/A   Clear
5:56 AM -20.2 °F - N/A% 29.28 in 10.0 mi North - - N/A   Clear
6:16 AM -23.8 °F - N/A% 29.28 in 10.0 mi North - - N/A   Clear
6:36 AM -23.8 °F - N/A% 29.28 in 10.0 mi North - - N/A   Clear
6:56 AM -23.8 °F - N/A% 29.28 in 10.0 mi North - - N/A   Clear
7:16 AM -23.8 °F - N/A% 29.27 in 10.0 mi North - - N/A   Clear
7:36 AM -22.0 °F - N/A% 29.27 in 10.0 mi North - - N/A   Clear
7:56 AM -23.8 °F - N/A% 29.26 in 10.0 mi North - - N/A   Clear
8:16 AM -23.8 °F - N/A% 29.26 in 10.0 mi North - - N/A   Clear
8:36 AM -23.8 °F - N/A% 29.26 in 10.0 mi North - - N/A   Clear
8:56 AM -25.6 °F - N/A% 29.26 in 10.0 mi North - - N/A   Clear
9:16 AM -25.6 °F - N/A% 29.26 in 10.0 mi North - - N/A   Clear
9:36 AM -25.6 °F - N/A% 29.27 in 9.0 mi North - - N/A   Clear
9:56 AM -25.6 °F - N/A% 29.27 in 10.0 mi North - - N/A   Clear
10:16 AM -23.8 °F -29.2 °F 76% 29.27 in 10.0 mi North - - N/A   Clear
10:36 AM -23.8 °F - N/A% 29.27 in 9.0 mi North - - N/A   Scattered Clouds
10:56 AM -22.0 °F -27.4 °F 76% 29.28 in 10.0 mi North - - N/A   Mostly Cloudy
11:16 AM -20.2 °F - N/A% 29.28 in 6.0 mi North - - N/A   Mostly Cloudy
11:36 AM -20.2 °F - N/A% 29.28 in 10.0 mi North - - N/A   Mostly Cloudy
11:56 AM -20.2 °F -29.2 °F 63% 29.29 in 9.0 mi North - - N/A   Overcast
12:16 PM -20.2 °F - N/A% 29.29 in 8.0 mi North - - N/A   Mostly Cloudy
12:36 PM -20.2 °F -27.4 °F 69% 29.29 in 10.0 mi North - - N/A   Partly Cloudy
12:56 PM -18.4 °F -29.2 °F 58% 29.29 in 10.0 mi North - - N/A   Mostly Cloudy
1:16 PM -18.4 °F -27.4 °F 63% 29.29 in 6.0 mi North - - N/A   Partly Cloudy
1:36 PM -18.4 °F -29.2 °F 58% 29.29 in 7.0 mi North - - N/A   Clear
1:56 PM -18.4 °F -29.2 °F 58% 29.29 in 7.0 mi North - - N/A   Clear
2:16 PM -18.4 °F -27.4 °F 63% 29.29 in 8.0 mi North - - N/A   Clear
2:36 PM -18.4 °F -29.2 °F 58% 29.30 in 10.0 mi North - - N/A   Clear
2:56 PM -18.4 °F -25.6 °F 70% 29.30 in 10.0 mi North - - N/A   Clear
3:16 PM -18.4 °F - N/A% 29.31 in 7.0 mi North - - N/A   Clear
3:36 PM -18.4 °F -27.4 °F 63% 29.31 in 6.0 mi North - - N/A   Clear
3:56 PM -18.4 °F -29.2 °F 58% 29.30 in 10.0 mi North - - N/A   Clear
4:16 PM -18.4 °F - N/A% 29.31 in 10.0 mi North - - N/A   Clear
4:36 PM -20.2 °F -29.2 °F 63% 29.32 in 10.0 mi North - - N/A   Clear
4:56 PM -20.2 °F - N/A% 29.32 in 10.0 mi North - - N/A   Clear
5:16 PM -20.2 °F -27.4 °F 69% 29.32 in 10.0 mi North - - N/A   Partly Cloudy
5:36 PM -20.2 °F - N/A% 29.33 in 10.0 mi North - - N/A   Clear
5:56 PM -20.2 °F -25.6 °F 76% 29.33 in 10.0 mi North - - N/A   Clear
6:16 PM -20.2 °F - N/A% 29.34 in 10.0 mi North - - N/A   Partly Cloudy
6:56 PM -20.2 °F - N/A% 29.35 in 10.0 mi North - - N/A   Clear
7:16 PM -20.2 °F -29.2 °F 63% 29.35 in 10.0 mi North - - N/A   Clear
7:36 PM -20.2 °F - N/A% 29.36 in 9.0 mi North - - N/A   Clear
7:56 PM -20.2 °F - N/A% 29.36 in 10.0 mi North - - N/A   Clear
8:16 PM -22.0 °F - N/A% 29.37 in 10.0 mi North - - N/A   Clear
8:36 PM -20.2 °F - N/A% 29.38 in 10.0 mi North - - N/A   Clear
8:56 PM -20.2 °F -25.6 °F 76% 29.38 in 10.0 mi North - - N/A   Clear
9:16 PM -23.8 °F - N/A% 29.38 in 10.0 mi North - - N/A   Clear
9:36 PM -23.8 °F - N/A% 29.39 in 10.0 mi North - - N/A   Clear
9:56 PM -23.8 °F - N/A% 29.40 in 7.0 mi North - - N/A   Clear
10:16 PM -25.6 °F - N/A% 29.40 in 8.0 mi North - - N/A   Clear
10:36 PM -23.8 °F - N/A% 29.41 in 8.0 mi North - - N/A   Clear
10:56 PM -23.8 °F - N/A% 29.42 in 8.0 mi North - - N/A   Clear
11:16 PM -25.6 °F - N/A% 29.42 in 5.0 mi North - - N/A   Clear
11:36 PM -25.6 °F - N/A% 29.43 in 10.0 mi North - - N/A   Clear
11:56 PM -23.8 °F - N/A% 29.44 in 10.0 mi North - - N/A   Clear